Location: Central Coast
(33.3208°S, 151.2336°E)
Time: 04:05:59
(UTC+11:00)

Envisat - Pass Details

Date: 16 October 2017
Orbit: 764 x 766 km, 98.2° (Epoch: 14 December)

Event Time Altitude Azimuth Distance (km) Brightness Sun altitude
Rises 21:54:32 0° 175° (S) 3,263 6.7 -32.1°
Reaches altitude 10° 21:56:55 10° 181° (S) 2,329 5.9 -32.5°
Enters shadow 22:00:58 43° 224° (SW) 1,084 4.1 -33.1°
